Regional Weather Roundup
Issued by NWS

Home | Current Version | Previous Version | Graphics & Text | Print | Product List | Glossary On
Versions: 1 2 3 4 5 6 7 8 9 10 11 12 13 14 15 16 17 18 19 20 21 22 23 24 25 26 27 28 29 30 31 32 33 34 35 36 37 38 39 40 41 42 43 44 45 46 47 48 49 50
000
ASUS43 KBIS 211031
RWRND
NORTH DAKOTA REGIONAL WEATHER ROUNDUP
NATIONAL WEATHER SERVICE EASTERN NORTH DAKOTA/GRAND FORKS ND
500 AM CDT MON MAY 21 2018

  NOTE: "FAIR" INDICATES FEW OR NO CLOUDS BELOW 12,000 FEET WITH NO
  SIGNIFICANT WEATHER AND/OR OBSTRUCTIONS TO VISIBILITY.

NDZ001>003-009>011-017-211100-
...NORTHWEST NORTH DAKOTA...

CITY           SKY/WX    TMP DP  RH WIND       PRES   REMARKS
WILLISTON      FAIR      51  37  58 SE7       29.99F
MINOT          FAIR      43  35  73 SE5       30.04F
MINOT AFB      FAIR      37  33  84 S3        30.03F
$$

NDZ018>021-031>035-040>046-211100-
...SOUTHWEST NORTH DAKOTA...

CITY           SKY/WX    TMP DP  RH WIND       PRES   REMARKS
BISMARCK       FAIR      44  39  82 NE6       30.06S
DICKINSON      FAIR      38  34  85 SE10      30.00F WCI  31
GARRISON         N/A     36  31  82 E3        30.04F
HETTINGER      FAIR      40  33  76 SE7       30.02F
$$

NDZ004>008-012>016-024-026-027-054-211100-
...NORTHEAST NORTH DAKOTA...

CITY           SKY/WX    TMP DP  RH WIND       PRES   REMARKS
GRAND FORKS    FAIR      42  37  82 CALM      30.08F
GRAND FORKS AF FAIR      40  36  84 CALM      30.09S
DEVILS LAKE    FAIR      48  42  80 CALM      30.09F
$$

NDZ022-023-025-028>030-036>039-047>053-211100-
...SOUTHEAST NORTH DAKOTA...

CITY           SKY/WX    TMP DP  RH WIND       PRES   REMARKS
JAMESTOWN      FAIR      43  37  79 CALM      30.07F
FARGO          FAIR      45  40  82 CALM      30.08F
WAHPETON       FAIR      50  32  50 E6        30.08F
$$




USA.gov is the U.S. government's official web portal to all federal, state and local government web resources and services.